{"data":{"norad_id":67919,"epoch":"2026-09-19T22:27:21.945024Z","epoch_age_seconds":111978,"freshness":"FRESH","line1":"1 67919U 26036R   26262.93567066  .00015617  00000+0  57559-3 0  9992","line2":"2 67919  42.9959 227.8976 0000483 316.5435  43.5379 15.27592964 33439","mean_motion":15.27592964,"eccentricity":4.83e-5,"inclination_deg":42.9959,"raan_deg":227.8976,"arg_perigee_deg":316.5435,"mean_anomaly_deg":43.5379,"bstar":0.00057559,"rev_number":3343,"period_min":94.265948713809,"perigee_km":482.67888402091,"apogee_km":483.34167084791,"semimajor_km":6861.1472774344,"source":"CELESTRAK","updated_at":"2026-09-20T09:00:43.703998Z"}}